Location: Dvur Kralove nad Labem
(50.4330°N, 15.8170°E)
Time: 21:45:52
(UTC+02:00)

ISS - Pass Details

Date: 23 May 2022
Orbit: 414 x 420 km, 51.6° (Epoch: 30 June)

Event Time Altitude Azimuth Distance (km) Brightness Sun altitude
Rises 23:56:30 0° 287° (WNW) 2,368 0.5 -17.9°
Reaches altitude 10° 23:58:40 10° 280° (W) 1,499 -0.7 -18.0°
Enters shadow 00:01:24 39° 232° (SW) 643 -3.1 -18.1°
